This is the latest recevied weather packets stored in our database for station/object W4JCW. If no packets are shown the sender has not sent any weather packets the latest 10 day(s).
| Time | Temp. | Humidity | Pressure | Rain* | Wind** | Luminosity | Snow |
|---|---|---|---|---|---|---|---|
| 1777823694 | 17.78° C | 41% | 1019.2 hPa | 0 mm | - | 931 W/m² | - |
| 1777823390 | 18.33° C | 42% | 1019.2 hPa | 0 mm | - | 922 W/m² | - |
| 1777823089 | 17.78° C | 41% | 1019 hPa | 0 mm | - | 912 W/m² | - |
| 1777822786 | 17.78° C | 44% | 1019.2 hPa | 0 mm | - | 911 W/m² | - |
| 1777822484 | 17.78° C | 44% | 1019.1 hPa | 0 mm | - | 895 W/m² | - |
| 1777822181 | 17.78° C | 43% | 1019.2 hPa | 0 mm | - | 877 W/m² | - |
| 1777821878 | 16.67° C | 45% | 1019.1 hPa | 0 mm | - | 878 W/m² | - |
| 1777821575 | 16.11° C | 44% | 1019 hPa | 0 mm | - | 758 W/m² | - |
| 1777821274 | 16.11° C | 45% | 1019 hPa | 0 mm | - | 844 W/m² | - |
| 1777820970 | 16.67° C | 45% | 1019.2 hPa | 0 mm | - | 845 W/m² | - |
| 1777820667 | 16.67° C | 44% | 1019.2 hPa | 0 mm | - | 558 W/m² | - |
| 1777820362 | 16.67° C | 46% | 1019 hPa | 0 mm | - | 486 W/m² | - |
| 1777820061 | 16.67° C | 48% | 1018.9 hPa | 0 mm | - | 62 W/m² | - |
| 1777819757 | 16.11° C | 46% | 1018.9 hPa | 0 mm | - | 80 W/m² | - |
| 1777819456 | 16.11° C | 49% | 1019.1 hPa | 0 mm | - | 74 W/m² | - |
| 1777819153 | 16.11° C | 47% | 1018.8 hPa | 0 mm | - | 80 W/m² | - |
| 1777818849 | 16.11° C | 50% | 1018.7 hPa | 0 mm | - | 62 W/m² | - |
| 1777818545 | 16.11° C | 49% | 1018.5 hPa | 0 mm | - | 59 W/m² | - |
| 1777818243 | 15.56° C | 49% | 1018.7 hPa | 0 mm | - | 419 W/m² | - |
| 1777817939 | 15.56° C | 48% | 1018.5 hPa | 0 mm | - | 627 W/m² | - |
| 1777817637 | 15.56° C | 48% | 1018.7 hPa | 0 mm | - | 166 W/m² | - |
| 1777817333 | 15.56° C | 47% | 1018.5 hPa | 0 mm | - | 632 W/m² | - |
| 1777817030 | 15.56° C | 48% | 1018.6 hPa | 0 mm | - | 292 W/m² | - |
| 1777816726 | 15.56° C | 48% | 1018.8 hPa | 0 mm | - | 327 W/m² | - |
| 1777816424 | 15° C | 50% | 1018.7 hPa | 0 mm | - | 578 W/m² | - |
* Rain latest hour (hover to see other rain measurements)
** Current wind speed in m/s (hover to see current wind gust speed)